Year,Month,Day,Hour,Minute,Value (Times are PST for temperature in C)
2021,11,28,00,00,10.90
2021,11,28,00,01,10.90
2021,11,28,00,02,10.90
2021,11,28,00,03,10.90
2021,11,28,00,04,10.90
2021,11,28,00,05,10.90
2021,11,28,00,06,10.90
2021,11,28,00,07,10.90
2021,11,28,00,08,10.90
2021,11,28,00,09,10.90
2021,11,28,00,10,10.90
2021,11,28,00,11,10.90
2021,11,28,00,12,11.00
2021,11,28,00,13,11.10
2021,11,28,00,14,11.10
2021,11,28,00,15,11.20
2021,11,28,00,16,11.20
2021,11,28,00,17,11.30
2021,11,28,00,18,11.30
2021,11,28,00,19,11.30
2021,11,28,00,20,11.30
2021,11,28,00,21,11.30
2021,11,28,00,22,11.30
2021,11,28,00,23,11.30
2021,11,28,00,24,11.30
2021,11,28,00,25,11.30
2021,11,28,00,26,11.30
2021,11,28,00,27,11.30
2021,11,28,00,28,11.30
2021,11,28,00,29,11.30
2021,11,28,00,30,11.30
2021,11,28,00,31,11.20
2021,11,28,00,32,11.20
2021,11,28,00,33,11.20
2021,11,28,00,34,11.20
2021,11,28,00,35,11.20
2021,11,28,00,36,11.20
2021,11,28,00,37,11.10
2021,11,28,00,38,11.10
2021,11,28,00,39,11.10
2021,11,28,00,40,11.10
2021,11,28,00,41,11.10
2021,11,28,00,42,11.10
2021,11,28,00,43,11.10
2021,11,28,00,44,11.10
2021,11,28,00,45,11.10
2021,11,28,00,46,11.10
2021,11,28,00,47,11.10
2021,11,28,00,48,11.10
2021,11,28,00,49,11.10
2021,11,28,00,50,11.10
2021,11,28,00,51,11.10
2021,11,28,00,52,11.10
2021,11,28,00,53,11.10
2021,11,28,00,54,11.10
2021,11,28,00,55,11.10
2021,11,28,00,56,11.10
2021,11,28,00,57,11.10
2021,11,28,00,58,11.10
2021,11,28,00,59,11.10
2021,11,28,01,00,11.10
2021,11,28,01,01,11.10
2021,11,28,12,21,11.80
2021,11,28,12,22,11.80
2021,11,28,12,23,11.80
2021,11,28,12,24,11.80
2021,11,28,12,25,11.80
2021,11,28,12,26,11.80
2021,11,28,12,27,11.80
2021,11,28,12,28,11.80
2021,11,28,12,29,11.80
2021,11,28,12,30,11.80
2021,11,28,12,31,11.80
2021,11,28,12,32,11.80
2021,11,28,12,33,11.80
2021,11,28,12,34,11.80
2021,11,28,12,35,11.80
2021,11,28,12,36,11.80
2021,11,28,12,37,11.80
2021,11,28,12,38,11.80
2021,11,28,12,39,11.80
2021,11,28,12,40,11.80
2021,11,28,12,41,11.80
2021,11,28,12,42,11.80
2021,11,28,12,43,11.80
2021,11,28,12,44,11.80
2021,11,28,12,45,11.80
2021,11,28,12,46,11.80
2021,11,28,12,47,11.80
2021,11,28,12,48,11.80
2021,11,28,12,49,11.80
2021,11,28,12,50,11.80
2021,11,28,12,51,11.80
2021,11,28,12,52,11.80
2021,11,28,12,53,11.80
2021,11,28,12,54,11.80
2021,11,28,12,55,11.80
2021,11,28,12,56,11.80
2021,11,28,12,57,11.80
2021,11,28,12,58,11.80
2021,11,28,12,59,11.80
2021,11,28,13,00,11.80
2021,11,28,13,01,11.80
2021,11,28,13,02,11.80
2021,11,28,13,03,11.80
2021,11,28,13,04,11.80
2021,11,28,13,05,11.90
2021,11,28,13,06,11.90
2021,11,28,13,07,11.90
2021,11,28,13,08,11.90
2021,11,28,13,09,11.90
2021,11,28,13,10,11.90
2021,11,28,13,11,11.90
2021,11,28,13,12,11.90
2021,11,28,13,13,11.90
2021,11,28,13,14,11.90
2021,11,28,13,15,11.90
2021,11,28,13,16,11.90
2021,11,28,13,17,11.90
2021,11,28,13,18,12.00
2021,11,28,13,19,12.00
2021,11,28,13,20,12.00
2021,11,28,13,21,12.00
2021,11,28,13,22,12.00
2021,11,28,13,23,12.00
2021,11,28,13,24,11.90
2021,11,28,13,25,11.90
2021,11,28,13,26,11.90
2021,11,28,13,27,11.90
2021,11,28,13,28,11.90
2021,11,28,13,29,11.90
2021,11,28,13,30,11.90
2021,11,28,13,31,11.90
2021,11,28,13,32,11.90
2021,11,28,13,33,11.90
2021,11,28,13,34,11.90
2021,11,28,13,35,11.90
2021,11,28,13,36,11.90
2021,11,28,13,37,11.90
2021,11,28,13,38,11.90
2021,11,28,13,39,11.90
2021,11,28,13,40,11.90
2021,11,28,13,41,11.90
2021,11,28,13,42,11.90
2021,11,28,13,43,11.90
2021,11,28,13,44,11.90
2021,11,28,13,45,11.90
2021,11,28,13,46,11.90
2021,11,28,13,47,11.90
2021,11,28,13,48,11.90
2021,11,28,13,49,11.90
2021,11,28,13,50,12.00
2021,11,28,13,51,12.00
2021,11,28,13,52,12.00
2021,11,28,13,53,12.00
2021,11,28,13,54,12.00
2021,11,28,13,55,12.00
2021,11,28,13,56,12.00
2021,11,28,13,57,12.00
2021,11,28,13,58,12.00
2021,11,28,13,59,12.00
2021,11,28,14,00,12.00
2021,11,28,14,01,12.00
2021,11,28,14,02,12.00
2021,11,28,14,03,12.10
2021,11,28,14,04,12.10
2021,11,28,14,05,12.10
2021,11,28,14,06,12.10
2021,11,28,14,07,12.10
2021,11,28,14,08,12.10
2021,11,28,14,09,12.10
2021,11,28,14,10,12.10
2021,11,28,14,11,12.10
2021,11,28,14,12,12.00
2021,11,28,14,13,12.00
2021,11,28,14,14,12.00
2021,11,28,14,15,12.00
2021,11,28,14,16,12.00
2021,11,28,14,17,12.00
2021,11,28,14,18,12.00
2021,11,28,14,19,12.00
2021,11,28,14,20,12.00
2021,11,28,14,21,12.00
2021,11,28,14,22,12.00
2021,11,28,14,23,12.00
2021,11,28,14,24,12.00
2021,11,28,14,25,12.00
2021,11,28,14,26,12.00
2021,11,28,14,27,12.00
2021,11,28,14,28,12.00
2021,11,28,14,29,12.00
2021,11,28,14,30,12.00
2021,11,28,14,31,12.00
2021,11,28,14,32,12.00
2021,11,28,14,33,12.00
2021,11,28,14,34,12.00
2021,11,28,14,35,12.00
2021,11,28,14,36,12.00
2021,11,28,14,37,12.00
2021,11,28,14,38,12.00
2021,11,28,14,39,12.00
2021,11,28,14,40,12.00
2021,11,28,14,41,12.00
2021,11,28,14,42,12.00
2021,11,28,14,43,12.00
2021,11,28,14,44,12.00
2021,11,28,14,45,12.00
2021,11,28,14,46,12.00
2021,11,28,14,47,12.00
2021,11,28,14,48,12.00
2021,11,28,14,49,12.00
2021,11,28,14,50,12.00
2021,11,28,14,51,12.00
2021,11,28,14,52,12.00
2021,11,28,14,53,12.00
2021,11,28,14,54,12.00
2021,11,28,14,55,12.00
2021,11,28,14,56,12.00
2021,11,28,14,57,12.00
2021,11,28,14,58,11.90
2021,11,28,14,59,11.90
2021,11,28,15,00,11.90
2021,11,28,15,01,11.90
2021,11,28,15,02,11.90
2021,11,28,15,03,11.90
2021,11,28,15,04,11.90
2021,11,28,15,05,11.90
2021,11,28,15,06,11.90
2021,11,28,15,07,11.90
2021,11,28,15,08,11.90
2021,11,28,15,09,11.90
2021,11,28,15,10,11.90
2021,11,28,15,11,11.90
2021,11,28,15,12,11.90
2021,11,28,15,13,11.90
2021,11,28,15,14,11.90
2021,11,28,15,15,11.90
2021,11,28,15,16,11.90
2021,11,28,15,17,11.90
2021,11,28,15,18,11.90
2021,11,28,15,19,11.90
2021,11,28,15,20,11.90
2021,11,28,15,21,11.80
2021,11,28,15,22,11.80
2021,11,28,15,23,11.80
2021,11,28,15,24,11.80
2021,11,28,15,25,11.80
2021,11,28,15,26,11.80
2021,11,28,15,27,11.80
2021,11,28,15,28,11.80
2021,11,28,15,29,11.80
2021,11,28,15,30,11.80
2021,11,28,15,31,11.80
2021,11,28,15,32,11.80
2021,11,28,15,33,11.80
2021,11,28,15,34,11.80
2021,11,28,15,35,11.80
2021,11,28,15,36,11.80
2021,11,28,15,37,11.80
2021,11,28,15,38,11.80
2021,11,28,15,39,11.80
2021,11,28,15,40,11.80
2021,11,28,15,41,11.80
2021,11,28,15,42,11.80
2021,11,28,15,43,11.80
2021,11,28,15,44,11.80
2021,11,28,15,45,11.80
2021,11,28,15,46,11.80
2021,11,28,15,47,11.80
2021,11,28,15,48,11.80
2021,11,28,15,49,11.80
2021,11,28,15,50,11.80
2021,11,28,15,51,11.80
2021,11,28,15,52,11.80
2021,11,28,15,53,11.80
2021,11,28,15,54,11.80
2021,11,28,15,55,11.80
2021,11,28,15,56,11.80
2021,11,28,15,57,11.80
2021,11,28,15,58,11.80
2021,11,28,15,59,11.80
2021,11,28,16,00,11.80
2021,11,28,16,01,11.80
2021,11,28,16,02,11.80
2021,11,28,16,03,11.80
2021,11,28,16,04,11.80
2021,11,28,16,05,11.80
2021,11,28,16,06,11.80
2021,11,28,16,07,11.80
2021,11,28,16,08,11.80
2021,11,28,16,09,11.80
2021,11,28,16,10,11.80
2021,11,28,16,11,11.80
2021,11,28,16,12,11.80
2021,11,28,16,13,11.80
2021,11,28,16,14,11.80
2021,11,28,16,15,11.70
2021,11,28,16,16,11.70
2021,11,28,16,17,11.70
2021,11,28,16,18,11.70
2021,11,28,16,19,11.70
2021,11,28,16,20,11.70
2021,11,28,16,21,11.70
2021,11,28,16,22,11.70
2021,11,28,16,23,11.70
2021,11,28,16,24,11.70
2021,11,28,16,25,11.70
2021,11,28,16,26,11.70
2021,11,28,16,27,11.70
2021,11,28,16,28,11.70
2021,11,28,16,29,11.70
2021,11,28,16,30,11.70
2021,11,28,16,31,11.70
2021,11,28,16,32,11.70
2021,11,28,16,33,11.70
2021,11,28,16,34,11.70
2021,11,28,16,35,11.70
2021,11,28,16,36,11.70
2021,11,28,16,37,11.70
2021,11,28,16,38,11.70
2021,11,28,16,39,11.70
2021,11,28,16,40,11.70
2021,11,28,16,41,11.70
2021,11,28,16,42,11.70
2021,11,28,16,43,11.70
2021,11,28,16,44,11.70
2021,11,28,16,45,11.70
2021,11,28,16,46,11.70
2021,11,28,16,47,11.70
2021,11,28,16,48,11.70
2021,11,28,16,49,11.70
2021,11,28,16,50,11.70
2021,11,28,16,51,11.80
2021,11,28,16,52,11.80
2021,11,28,16,53,11.80
2021,11,28,16,54,11.80
2021,11,28,16,55,11.80
2021,11,28,16,56,11.80
2021,11,28,16,57,11.80
2021,11,28,16,58,11.80
2021,11,28,16,59,11.80
2021,11,28,17,00,11.80
2021,11,28,17,01,11.80
2021,11,28,17,02,11.80
2021,11,28,17,03,11.80
2021,11,28,17,04,11.70
2021,11,28,17,05,11.70
2021,11,28,17,06,11.80
2021,11,28,17,07,11.80
2021,11,28,17,08,11.80
2021,11,28,17,09,11.70
2021,11,28,17,10,11.70
2021,11,28,17,11,11.70
2021,11,28,17,12,11.70
2021,11,28,17,13,11.70
2021,11,28,17,14,11.70
2021,11,28,17,15,11.70
2021,11,28,17,16,11.70
2021,11,28,17,17,11.70
2021,11,28,17,18,11.70
2021,11,28,17,19,11.70
2021,11,28,17,20,11.70
2021,11,28,17,21,11.70
2021,11,28,17,22,11.70
2021,11,28,17,23,11.70
2021,11,28,17,24,11.70
2021,11,28,17,25,11.70
2021,11,28,17,26,11.70
2021,11,28,17,27,11.70
2021,11,28,17,28,11.70
2021,11,28,17,29,11.70
2021,11,28,17,30,11.70
2021,11,28,17,31,11.70
2021,11,28,17,32,11.70
2021,11,28,17,33,11.70
2021,11,28,17,34,11.70
2021,11,28,17,35,11.70
2021,11,28,17,36,11.70
2021,11,28,17,37,11.70
2021,11,28,17,38,11.70
2021,11,28,17,39,11.70
2021,11,28,17,40,11.70
2021,11,28,17,41,11.70
2021,11,28,17,42,11.70
2021,11,28,17,43,11.70
2021,11,28,17,44,11.70
2021,11,28,17,45,11.70
2021,11,28,17,46,11.70
2021,11,28,17,47,11.70
2021,11,28,17,48,11.70
2021,11,28,17,49,11.70
2021,11,28,17,50,11.70
2021,11,28,17,51,11.70
2021,11,28,17,52,11.70
2021,11,28,17,53,11.70
2021,11,28,17,54,11.70
2021,11,28,17,55,11.70
2021,11,28,17,56,11.70
2021,11,28,17,57,11.70
2021,11,28,17,58,11.70
2021,11,28,17,59,11.80
2021,11,28,18,00,11.70
2021,11,28,18,01,11.70
2021,11,28,18,02,11.70
2021,11,28,18,03,11.70
2021,11,28,18,04,11.70
2021,11,28,18,05,11.70
2021,11,28,18,06,11.80
2021,11,28,18,07,11.80
2021,11,28,18,08,11.80
2021,11,28,18,09,11.80
2021,11,28,18,10,11.70
2021,11,28,18,11,11.70
2021,11,28,18,12,11.70
2021,11,28,18,13,11.70
2021,11,28,18,14,11.70
2021,11,28,18,15,11.70
2021,11,28,18,16,11.70
2021,11,28,18,17,11.70
2021,11,28,18,18,11.70
2021,11,28,18,19,11.70
2021,11,28,18,20,11.70
2021,11,28,18,21,11.70
2021,11,28,18,22,11.70
2021,11,28,18,23,11.70
2021,11,28,18,24,11.70
2021,11,28,18,25,11.70
2021,11,28,18,26,11.70
2021,11,28,18,27,11.70
2021,11,28,18,28,11.70
2021,11,28,18,29,11.60
2021,11,28,18,30,11.60
2021,11,28,18,31,11.60
2021,11,28,18,32,11.60
2021,11,28,18,33,11.60
2021,11,28,18,34,11.60
2021,11,28,18,35,11.60
2021,11,28,18,36,11.60
2021,11,28,18,37,11.60
2021,11,28,18,38,11.60
2021,11,28,18,39,11.60
2021,11,28,18,40,11.60
2021,11,28,18,41,11.60
2021,11,28,18,42,11.60
2021,11,28,18,43,11.60
2021,11,28,18,44,11.60
2021,11,28,18,45,11.60
2021,11,28,18,46,11.60
2021,11,28,18,47,11.60
2021,11,28,18,48,11.60
2021,11,28,18,49,11.60
2021,11,28,18,50,11.60
2021,11,28,18,51,11.60
2021,11,28,18,52,11.60
2021,11,28,18,53,11.60
2021,11,28,18,54,11.60
2021,11,28,18,55,11.60
2021,11,28,18,56,11.50
2021,11,28,18,57,11.40
2021,11,28,18,58,11.40
2021,11,28,18,59,11.40
2021,11,28,19,00,11.40
2021,11,28,19,01,11.40
2021,11,28,19,02,11.40
2021,11,28,19,03,11.40
2021,11,28,19,04,11.40
2021,11,28,19,05,11.40
2021,11,28,19,06,11.40
2021,11,28,19,07,11.40
2021,11,28,19,08,11.40
2021,11,28,19,09,11.40
2021,11,28,19,10,11.40
2021,11,28,19,11,11.30
2021,11,28,19,12,11.30
2021,11,28,19,13,11.30
2021,11,28,19,14,11.30
2021,11,28,19,15,11.30
2021,11,28,19,16,11.30
2021,11,28,19,17,11.30
2021,11,28,19,18,11.30
2021,11,28,19,19,11.30
2021,11,28,19,20,11.30
2021,11,28,19,21,11.30
2021,11,28,19,22,11.30
2021,11,28,19,23,11.30
2021,11,28,19,24,11.30
2021,11,28,19,25,11.30
2021,11,28,19,26,11.30
2021,11,28,19,27,11.30
2021,11,28,19,28,11.30
2021,11,28,19,29,11.30
2021,11,28,19,30,11.30
2021,11,28,19,31,11.30
2021,11,28,19,32,11.20
2021,11,28,19,33,11.20
2021,11,28,19,34,11.20
2021,11,28,19,35,11.20
2021,11,28,19,36,11.20
2021,11,28,19,37,11.10
2021,11,28,19,38,11.10
2021,11,28,19,39,11.10
2021,11,28,19,40,11.10
2021,11,28,19,41,11.10
2021,11,28,19,42,11.10
2021,11,28,19,43,11.10
2021,11,28,19,44,11.10
2021,11,28,19,45,11.10
2021,11,28,19,46,11.00
2021,11,28,19,47,10.90
2021,11,28,19,48,10.90
2021,11,28,19,49,10.90
2021,11,28,19,50,10.90
2021,11,28,19,51,10.90
2021,11,28,19,52,10.90
2021,11,28,19,53,10.90
2021,11,28,19,54,10.90
2021,11,28,19,55,10.90
2021,11,28,19,56,10.90
2021,11,28,19,57,10.90
2021,11,28,19,58,10.90
2021,11,28,19,59,10.90
2021,11,28,20,00,10.90
2021,11,28,20,01,10.90
2021,11,28,20,02,10.90
2021,11,28,20,03,10.90
2021,11,28,20,04,10.90
2021,11,28,20,05,10.90
2021,11,28,20,06,10.90
2021,11,28,20,07,10.90
2021,11,28,20,08,11.00
2021,11,28,20,09,11.10
2021,11,28,20,10,11.10
2021,11,28,20,11,11.10
2021,11,28,20,12,11.10
2021,11,28,20,13,11.10
2021,11,28,20,14,11.10
2021,11,28,20,15,11.10
2021,11,28,20,16,11.10
2021,11,28,20,17,11.10
2021,11,28,20,18,11.10
2021,11,28,20,19,11.10
2021,11,28,20,20,11.10
2021,11,28,20,21,11.10
2021,11,28,20,22,11.10
2021,11,28,20,23,11.10
2021,11,28,20,24,11.10
2021,11,28,20,25,11.10
2021,11,28,20,26,11.10
2021,11,28,20,27,11.10
2021,11,28,20,28,11.10
2021,11,28,20,29,11.10
2021,11,28,20,30,11.10
2021,11,28,20,31,11.10
2021,11,28,20,32,11.10
2021,11,28,20,33,11.10
2021,11,28,20,34,11.10
2021,11,28,20,35,11.10
2021,11,28,20,36,11.10
2021,11,28,20,37,11.10
2021,11,28,20,38,11.20
2021,11,28,20,39,11.20
2021,11,28,20,40,11.20
2021,11,28,20,41,11.20
2021,11,28,20,42,11.20
2021,11,28,20,43,11.20
2021,11,28,20,44,11.20
2021,11,28,20,45,11.20
2021,11,28,20,46,11.20
2021,11,28,20,47,11.20
2021,11,28,20,48,11.20
2021,11,28,20,49,11.20
2021,11,28,20,50,11.20
2021,11,28,20,51,11.20
2021,11,28,20,52,11.20
2021,11,28,20,53,11.20
2021,11,28,20,54,11.20
2021,11,28,20,55,11.20
2021,11,28,20,56,11.20
2021,11,28,20,57,11.20
2021,11,28,20,58,11.30
2021,11,28,20,59,11.30
2021,11,28,21,00,11.30
2021,11,28,21,01,11.30
2021,11,28,21,02,11.30
2021,11,28,21,03,11.30
2021,11,28,21,04,11.30
2021,11,28,21,05,11.30
2021,11,28,21,06,11.30
2021,11,28,21,07,11.30
2021,11,28,21,08,11.30
2021,11,28,21,09,11.30
2021,11,28,21,10,11.30
2021,11,28,21,11,11.30
2021,11,28,21,12,11.20
2021,11,28,21,13,11.20
2021,11,28,21,14,11.20
2021,11,28,21,15,11.20
2021,11,28,21,16,11.20
2021,11,28,21,17,11.20
2021,11,28,21,18,11.20
2021,11,28,21,19,11.20
2021,11,28,21,20,11.10
2021,11,28,21,21,11.10
2021,11,28,21,22,11.10
2021,11,28,21,23,11.10
2021,11,28,21,24,11.10
2021,11,28,21,25,11.10
2021,11,28,21,26,11.10
2021,11,28,21,27,11.10
2021,11,28,21,28,11.10
2021,11,28,21,29,11.10
2021,11,28,21,30,11.10
2021,11,28,21,31,11.10
2021,11,28,21,32,11.10
2021,11,28,21,33,11.10
2021,11,28,21,34,11.10
2021,11,28,21,35,11.10
2021,11,28,21,36,11.00
2021,11,28,21,37,10.90
2021,11,28,21,38,10.90
2021,11,28,21,39,10.90
2021,11,28,21,40,10.90
2021,11,28,21,41,10.90
2021,11,28,21,42,10.90
2021,11,28,21,43,10.90
2021,11,28,21,44,10.90
2021,11,28,21,45,10.90
2021,11,28,21,46,10.90
2021,11,28,21,47,10.90
2021,11,28,21,48,10.90
2021,11,28,21,49,10.90
2021,11,28,21,50,10.90
2021,11,28,21,51,10.90
2021,11,28,21,52,10.90
2021,11,28,21,53,10.90
2021,11,28,21,54,10.90
2021,11,28,21,55,10.90
2021,11,28,21,56,10.90
2021,11,28,21,57,10.90
2021,11,28,21,58,10.90
2021,11,28,21,59,10.90
2021,11,28,22,00,10.90
2021,11,28,22,01,10.90
2021,11,28,22,02,11.00
2021,11,28,22,03,11.10
2021,11,28,22,04,11.10
2021,11,28,22,05,11.10
2021,11,28,22,06,11.10
2021,11,28,22,07,11.10
2021,11,28,22,08,11.10
2021,11,28,22,09,11.10
2021,11,28,22,10,11.10
2021,11,28,22,11,11.10
2021,11,28,22,12,11.10
2021,11,28,22,13,11.20
2021,11,28,22,14,11.20
2021,11,28,22,15,11.20
2021,11,28,22,16,11.20
2021,11,28,22,17,11.20
2021,11,28,22,18,11.20
2021,11,28,22,19,11.20
2021,11,28,22,20,11.20
2021,11,28,22,21,11.20
2021,11,28,22,22,11.30
2021,11,28,22,23,11.30
2021,11,28,22,24,11.30
2021,11,28,22,25,11.30
2021,11,28,22,26,11.30
2021,11,28,22,27,11.30
2021,11,28,22,28,11.30
2021,11,28,22,29,11.30
2021,11,28,22,30,11.30
2021,11,28,22,31,11.30
2021,11,28,22,32,11.30
2021,11,28,22,33,11.30
2021,11,28,22,34,11.30
2021,11,28,22,35,11.30
2021,11,28,22,36,11.30
2021,11,28,22,37,11.30
2021,11,28,22,38,11.30
2021,11,28,22,39,11.40
2021,11,28,22,40,11.40
2021,11,28,22,41,11.40
2021,11,28,22,42,11.40
2021,11,28,22,43,11.40
2021,11,28,22,44,11.40
2021,11,28,22,45,11.40
2021,11,28,22,46,11.40
2021,11,28,22,47,11.40
2021,11,28,22,48,11.40
2021,11,28,22,49,11.40
2021,11,28,22,50,11.40
2021,11,28,22,51,11.40
2021,11,28,22,52,11.40
2021,11,28,22,53,11.40
2021,11,28,22,54,11.40
2021,11,28,22,55,11.40
2021,11,28,22,56,11.40
2021,11,28,22,57,11.40
2021,11,28,22,58,11.40
2021,11,28,22,59,11.40
2021,11,28,23,00,11.40
2021,11,28,23,01,11.40
2021,11,28,23,02,11.40
2021,11,28,23,03,11.40
2021,11,28,23,04,11.30
2021,11,28,23,05,11.30
2021,11,28,23,06,11.30
2021,11,28,23,07,11.30
2021,11,28,23,08,11.30
2021,11,28,23,09,11.30
2021,11,28,23,10,11.20
2021,11,28,23,11,11.20
2021,11,28,23,12,11.20
2021,11,28,23,13,11.10
2021,11,28,23,14,11.10
2021,11,28,23,15,11.10
2021,11,28,23,16,10.90
2021,11,28,23,17,10.90
2021,11,28,23,18,10.90
2021,11,28,23,19,10.90
2021,11,28,23,20,10.90
2021,11,28,23,21,10.90
2021,11,28,23,22,10.90
2021,11,28,23,23,10.90
2021,11,28,23,24,10.90
2021,11,28,23,25,10.90
2021,11,28,23,26,10.90
2021,11,28,23,27,10.90
2021,11,28,23,28,10.90
2021,11,28,23,29,10.90
2021,11,28,23,30,10.90
2021,11,28,23,31,10.90
2021,11,28,23,32,10.80
2021,11,28,23,33,10.80
2021,11,28,23,34,10.80
2021,11,28,23,35,10.80
2021,11,28,23,36,10.80
2021,11,28,23,37,10.90
2021,11,28,23,38,10.90
2021,11,28,23,39,10.90
2021,11,28,23,40,10.90
2021,11,28,23,41,10.90
2021,11,28,23,42,10.90
2021,11,28,23,43,10.90
2021,11,28,23,44,10.90
2021,11,28,23,45,10.90
2021,11,28,23,46,10.90
2021,11,28,23,47,10.90
2021,11,28,23,48,10.90
2021,11,28,23,49,10.90
2021,11,28,23,50,10.90
2021,11,28,23,51,10.90
2021,11,28,23,52,10.90
2021,11,28,23,53,10.90
2021,11,28,23,54,10.90
2021,11,28,23,55,10.90
2021,11,28,23,56,10.90
2021,11,28,23,57,10.90
2021,11,28,23,58,10.90
2021,11,28,23,59,10.90
